Bemidji, MN

2:40 PM CST on February 20, 2017 (GMT -0600)
Bemidji-Beltrami County

Weather History for KBJI - March, 2013

Change the Weather History Date:

Monday, March 25, 2013

  Actual Average Record
Temperature  
Mean Temperature 24 °F -  
Max Temperature 32 °F 39 °F 62 °F (1961)
Min Temperature 16 °F 18 °F -24 °F (1965)
Degree Days  
Heating Degree Days 41    
Moisture  
Dew Point 15 °F    
Average Humidity 66    
Maximum Humidity 84    
Minimum Humidity 49    
Precipitation  
Precipitation 0.00 in - - ()
Sea Level Pressure  
Sea Level Pressure 30.19 in    
Wind  
Wind Speed 10 mph (NNW)    
Max Wind Speed 16 mph    
Max Gust Speed 20 mph    
Visibility 10 miles    
Events Snow    
Averages and records for this station are not official NWS values.
T = Trace of Precipitation, MM = Missing Value Source: NWS Daily Summary

Daily Weather History Graph

Daily Weather History Graph

Search for Another Location

Airport or City:

Trip Planner

Search our weather history database for the weather conditions in past years. The results will help you decide how hot, cold, wet, or windy it might be!

Date:

Astronomy

Mar. 25, 2013 Rise Set
Actual Time 7:11 AM CDT 7:39 PM CDT
Civil Twilight 6:41 AM CDT 8:10 PM CDT
Nautical Twilight 6:04 AM CDT 8:47 PM CDT
Astronomical Twilight 5:26 AM CDT 9:25 PM CDT
Moon 6:09 PM CDT (3/25) 6:01 AM CDT (3/25)
Length of Visible Light 13h 29m
Length of Day
12h 28m
Waxing Gibbous, 96% of the Moon is Illuminated
Mar 25
Waxing Gibbous
Mar 27
Full
Apr 2
Last Quarter
Apr 10
New
Apr 18
First Quarter

Hourly Weather History & Observations

Time (CDT) Temp. Windchill Dew Point Humidity Pressure Visibility Wind Dir Wind Speed Gust Speed Precip Events Conditions
12:15 AM 24.8 °F 16.1 °F 14.7 °F 66% 30.13 in 10.0 mi NNE 8.1 mph - N/A   Overcast
12:35 AM 24.8 °F 14.0 °F 14.5 °F 65% 30.14 in 10.0 mi NNE 11.5 mph - N/A   Overcast
12:55 AM 24.8 °F 15.3 °F 14.4 °F 65% 30.13 in 10.0 mi North 9.2 mph - N/A   Overcast
1:15 AM 24.6 °F 17.7 °F 14.5 °F 66% 30.13 in 10.0 mi North 5.8 mph - N/A   Overcast
1:35 AM 24.6 °F 18.8 °F 14.5 °F 66% 30.14 in 10.0 mi NNW 4.6 mph - N/A   Overcast
1:55 AM 24.3 °F 18.4 °F 14.5 °F 67% 30.14 in 10.0 mi NNW 4.6 mph - N/A   Overcast
2:15 AM 23.9 °F 16.8 °F 14.5 °F 67% 30.13 in 10.0 mi North 5.8 mph - N/A   Overcast
2:35 AM 23.7 °F 15.6 °F 14.7 °F 69% 30.13 in 10.0 mi North 6.9 mph - N/A   Overcast
2:55 AM 23.7 °F 14.0 °F 14.9 °F 69% 30.13 in 10.0 mi NNW 9.2 mph - N/A   Overcast
3:15 AM 23.7 °F 14.7 °F 14.7 °F 69% 30.13 in 10.0 mi North 8.1 mph - N/A   Overcast
3:55 AM 23.7 °F 13.3 °F 14.5 °F 68% 30.13 in 10.0 mi North 10.4 mph - N/A   Overcast
4:15 AM 23.4 °F 14.3 °F 14.2 °F 68% 30.13 in 10.0 mi North 8.1 mph - N/A   Overcast
4:55 AM 23.0 °F 11.1 °F 13.8 °F 68% 30.14 in 10.0 mi North 12.7 mph 18.4 mph N/A   Overcast
5:35 AM 22.1 °F 10.0 °F 12.9 °F 68% 30.15 in 10.0 mi North 12.7 mph 16.1 mph N/A   Overcast
5:55 AM 22.1 °F 10.6 °F 12.7 °F 67% 30.16 in 10.0 mi North 11.5 mph 17.3 mph N/A   Overcast
6:15 AM 21.7 °F 11.5 °F 12.4 °F 67% 30.16 in 10.0 mi North 9.2 mph - N/A   Overcast
6:35 AM 21.2 °F 8.9 °F 12.0 °F 68% 30.17 in 10.0 mi North 12.7 mph - N/A   Overcast
6:55 AM 20.8 °F 9.7 °F 11.8 °F 68% 30.17 in 10.0 mi North 10.4 mph - N/A   Overcast
7:15 AM 20.3 °F 9.8 °F 11.7 °F 69% 30.18 in 10.0 mi NNW 9.2 mph 16.1 mph N/A   Overcast
7:35 AM 19.9 °F 9.3 °F 11.3 °F 69% 30.19 in 10.0 mi NNW 9.2 mph - N/A   Mostly Cloudy
7:55 AM 19.2 °F 8.4 °F 10.9 °F 70% 30.19 in 10.0 mi NNW 9.2 mph - N/A   Scattered Clouds
8:15 AM 19.2 °F 7.0 °F 10.9 °F 70% 30.19 in 10.0 mi NNW 11.5 mph - N/A   Clear
8:35 AM 19.8 °F 7.7 °F 11.1 °F 69% 30.19 in 10.0 mi North 11.5 mph 18.4 mph N/A   Mostly Cloudy
8:55 AM 20.3 °F 9.8 °F 11.3 °F 68% 30.20 in 10.0 mi North 9.2 mph - N/A   Scattered Clouds
9:15 AM 20.8 °F 9.7 °F 11.7 °F 68% 30.21 in 10.0 mi North 10.4 mph 18.4 mph N/A   Scattered Clouds
9:35 AM 21.4 °F 10.4 °F 12.0 °F 67% 30.21 in 10.0 mi North 10.4 mph 17.3 mph N/A   Overcast
9:55 AM 21.9 °F 9.8 °F 12.6 °F 67% 30.21 in 10.0 mi North 12.7 mph - N/A   Overcast
10:15 AM 22.8 °F 13.6 °F 13.1 °F 66% 30.21 in 10.0 mi North 8.1 mph - N/A   Overcast
10:55 AM 24.6 °F 14.4 °F 14.5 °F 66% 30.21 in 10.0 mi NNW 10.4 mph - N/A   Mostly Cloudy
11:15 AM 25.7 °F 17.1 °F 14.9 °F 64% 30.21 in 10.0 mi NW 8.1 mph - N/A   Overcast
11:35 AM 26.6 °F 15.7 °F 15.4 °F 63% 30.21 in 10.0 mi North 12.7 mph - N/A   Overcast
11:55 AM 27.5 °F 18.0 °F 16.0 °F 62% 30.21 in 10.0 mi NNW 10.4 mph - N/A   Scattered Clouds
12:15 PM 28.4 °F 18.5 °F 16.5 °F 61% 30.21 in 10.0 mi NNW 11.5 mph - N/A   Mostly Cloudy
12:35 PM 28.8 °F 19.5 °F 16.0 °F 59% 30.21 in 10.0 mi North 10.4 mph - N/A   Mostly Cloudy
12:55 PM 29.7 °F 20.7 °F 16.3 °F 58% 30.21 in 10.0 mi North 10.4 mph - N/A   Scattered Clouds
1:15 PM 30.2 °F 19.8 °F 16.3 °F 56% 30.20 in 10.0 mi NNW 13.8 mph 19.6 mph N/A   Scattered Clouds
1:35 PM 30.4 °F 20.0 °F 15.1 °F 53% 30.20 in 1.2 mi North 13.8 mph 19.6 mph N/A Snow Light Snow
1:55 PM 31.1 °F 20.9 °F 15.6 °F 53% 30.19 in 10.0 mi North 13.8 mph - N/A   Scattered Clouds
2:15 PM 31.1 °F 20.9 °F 15.4 °F 52% 30.19 in 10.0 mi North 13.8 mph 19.6 mph N/A   Scattered Clouds
2:35 PM 31.6 °F 22.1 °F 16.0 °F 52% 30.19 in 10.0 mi North 12.7 mph 18.4 mph N/A   Clear
2:55 PM 32.0 °F 22.5 °F 16.5 °F 53% 30.19 in 10.0 mi North 12.7 mph 17.3 mph N/A   Clear
3:15 PM 32.2 °F 23.2 °F 16.7 °F 53% 30.19 in 10.0 mi North 11.5 mph 17.3 mph N/A   Clear
3:35 PM 32.4 °F 23.5 °F 16.7 °F 53% 30.18 in 10.0 mi North 11.5 mph 18.4 mph N/A   Scattered Clouds
3:55 PM 32.5 °F 23.2 °F 17.1 °F 53% 30.18 in 10.0 mi North 12.7 mph 17.3 mph N/A   Overcast
4:15 PM 32.0 °F 22.5 °F 16.7 °F 53% 30.18 in 10.0 mi North 12.7 mph - N/A   Mostly Cloudy
4:35 PM 32.0 °F 22.1 °F 16.9 °F 54% 30.18 in 10.0 mi NNW 13.8 mph 18.4 mph N/A   Mostly Cloudy
4:55 PM 32.2 °F 24.4 °F 16.3 °F 52% 30.18 in 10.0 mi NW 9.2 mph 17.3 mph N/A   Scattered Clouds
5:15 PM 32.0 °F 24.2 °F 16.3 °F 52% 30.19 in 10.0 mi NNW 9.2 mph - N/A   Clear
5:35 PM 32.0 °F 23.0 °F 16.5 °F 53% 30.19 in 10.0 mi North 11.5 mph - N/A   Scattered Clouds
5:55 PM 31.8 °F 24.6 °F 16.0 °F 52% 30.19 in 10.0 mi North 8.1 mph - N/A   Clear
6:15 PM 32.0 °F 23.6 °F 14.9 °F 49% 30.19 in 10.0 mi NNW 10.4 mph - N/A   Clear
6:55 PM 29.3 °F 19.6 °F 19.0 °F 66% 30.21 in 10.0 mi WNW 11.5 mph - N/A   Clear
7:15 PM 28.4 °F 16.6 °F 18.5 °F 66% 30.21 in 10.0 mi WNW 16.1 mph - N/A   Clear
7:35 PM 27.3 °F 16.6 °F 18.0 °F 68% 30.22 in 10.0 mi WNW 12.7 mph - N/A   Clear
7:55 PM 26.2 °F 16.4 °F 17.6 °F 70% 30.22 in 10.0 mi WNW 10.4 mph - N/A   Clear
8:15 PM 25.2 °F 15.1 °F 17.1 °F 71% 30.23 in 10.0 mi NW 10.4 mph - N/A   Clear
8:35 PM 23.7 °F 14.0 °F 16.5 °F 74% 30.23 in 10.0 mi NW 9.2 mph - N/A   Clear
8:55 PM 22.8 °F 11.5 °F 16.5 °F 77% 30.24 in 10.0 mi NW 11.5 mph - N/A   Clear
9:15 PM 22.3 °F 12.2 °F 16.3 °F 78% 30.24 in 10.0 mi WNW 9.2 mph - N/A   Clear
9:35 PM 21.6 °F 10.6 °F 15.8 °F 78% 30.24 in 10.0 mi WNW 10.4 mph - N/A   Clear
9:55 PM 20.7 °F 9.5 °F 15.4 °F 80% 30.24 in 10.0 mi WNW 10.4 mph - N/A   Clear
10:15 PM 19.8 °F 9.1 °F 15.1 °F 82% 30.25 in 10.0 mi WNW 9.2 mph - N/A   Clear
10:35 PM 19.0 °F 8.2 °F 14.4 °F 82% 30.25 in 10.0 mi WNW 9.2 mph - N/A   Clear
10:55 PM 18.1 °F 7.1 °F 13.8 °F 83% 30.25 in 10.0 mi WNW 9.2 mph - N/A   Clear
11:15 PM 17.6 °F 7.3 °F 13.3 °F 83% 30.25 in 10.0 mi WNW 8.1 mph - N/A   Clear
11:35 PM 16.9 °F 6.4 °F 12.9 °F 84% 30.25 in 10.0 mi WNW 8.1 mph - N/A   Clear
11:55 PM 16.2 °F 6.5 °F 12.2 °F 84% 30.25 in 10.0 mi WNW 6.9 mph - N/A   Clear